datetime,delta storage
2008-10-08,97.0
2008-10-09,96.0
2008-10-10,96.0
2008-10-11,96.0
2008-10-12,97.0
2008-10-13,
2008-10-14,
2008-10-15,
2008-10-16,
2008-10-17,
2008-10-18,
2008-10-19,
2008-10-20,
2008-10-21,
2008-10-22,
2008-10-23,
2008-10-24,
2008-10-25,
2008-10-26,
2008-10-27,
2008-10-28,
2008-10-29,
2008-10-30,
2008-10-31,
2008-11-01,
2008-11-02,
2008-11-03,
2008-11-04,
2008-11-05,
2008-11-06,
2008-11-07,
2008-11-08,
2008-11-09,
2008-11-10,
2008-11-11,
2008-11-12,
2008-11-13,
2008-11-14,
2008-11-15,
2008-11-16,
2008-11-17,
2008-11-18,
2008-11-19,
2008-11-20,
2008-11-21,
2008-11-22,
2008-11-23,
2008-11-24,
2008-11-25,
2008-11-26,
2008-11-27,
2008-11-28,
2008-11-29,
2008-11-30,
2008-12-01,
2008-12-02,
2008-12-03,
2008-12-04,
2008-12-05,
2008-12-06,
2008-12-07,
2008-12-08,
2008-12-09,
2008-12-10,
2008-12-11,
2008-12-12,
2008-12-13,
2008-12-14,
2008-12-15,
2008-12-16,
2008-12-17,
2008-12-18,
2008-12-19,
2008-12-20,
2008-12-21,
2008-12-22,
2008-12-23,
2008-12-24,
2008-12-25,
2008-12-26,
2008-12-27,
2008-12-28,
2008-12-29,
2008-12-30,
2008-12-31,
2009-01-01,96.0
2009-01-02,193.0
2009-01-03,193.0
2009-01-04,96.0
2009-01-05,97.0
2009-01-06,289.0
2009-01-07,289.0
2009-01-08,290.0
2009-01-09,96.0
2009-01-10,290.0
2009-01-11,290.0
2009-01-12,386.0
2009-01-13,676.0
2009-01-14,774.0
2009-01-15,483.0
2009-01-16,484.0
2009-01-17,484.0
2009-01-18,484.0
2009-01-19,484.0
2009-01-20,484.0
2009-01-21,1260.0
2009-01-22,1164.0
2009-01-23,776.0
2009-01-24,777.0
2009-01-25,777.0
2009-01-26,583.0
2009-01-27,680.0
2009-01-28,681.0
2009-01-29,584.0
2009-01-30,486.0
2009-01-31,487.0
2009-02-01,584.0
2009-02-02,681.0
2009-02-03,585.0
2009-02-04,487.0
2009-02-05,584.0
2009-02-06,487.0
2009-02-07,488.0
2009-02-08,487.0
2009-02-09,488.0
2009-02-10,1170.0
2009-02-11,1171.0
2009-02-12,1074.0
2009-02-13,977.0
2009-02-14,684.0
2009-02-15,684.0
2009-02-16,586.0
2009-02-17,880.0
2009-02-18,880.0
2009-02-19,880.0
2009-02-20,880.0
2009-02-21,881.0
2009-02-22,881.0
2009-02-23,1077.0
2009-02-24,392.0
2009-02-25,489.0
2009-02-26,882.0
2009-02-27,1470.0
2009-02-28,490.0
2009-03-01,0.0
2009-03-02,588.0
2009-03-03,784.0
2009-03-04,784.0
2009-03-05,1569.0
2009-03-06,392.0
2009-03-07,1079.0
2009-03-08,1079.0
2009-03-09,982.0
2009-03-10,1276.0
2009-03-11,1179.0
2009-03-12,786.0
2009-03-13,786.0
2009-03-14,688.0
2009-03-15,689.0
2009-03-16,590.0
2009-03-17,590.0
2009-03-18,1082.0
2009-03-19,492.0
2009-03-20,1083.0
2009-03-21,1083.0
2009-03-22,1083.0
2009-03-23,1182.0
2009-03-24,1477.0
2009-03-25,690.0
2009-03-26,1183.0
2009-03-27,1084.0
2009-03-28,789.0
2009-03-29,789.0
2009-03-30,887.0
2009-03-31,494.0
2009-04-01,197.0
2009-04-02,493.0
2009-04-03,494.0
2009-04-04,986.0
2009-04-05,987.0
2009-04-06,988.0
2009-04-07,592.0
2009-04-08,593.0
2009-04-09,691.0
2009-04-10,1185.0
2009-04-11,890.0
2009-04-12,889.0
2009-04-13,791.0
2009-04-14,1384.0
2009-04-15,1384.0
2009-04-16,2671.0
2009-04-17,2673.0
2009-04-18,1287.0
2009-04-19,1288.0
2009-04-20,1288.0
2009-04-21,793.0
2009-04-22,793.0
2009-04-23,892.0
2009-04-24,1884.0
2009-04-25,1587.0
2009-04-26,1587.0
2009-04-27,1489.0
2009-04-28,1290.0
2009-04-29,1290.0
2009-04-30,1291.0
2009-05-01,1986.0
2009-05-02,1688.0
2009-05-03,1688.0
2009-05-04,1590.0
2009-05-05,1390.0
2009-05-06,1292.0
2009-05-07,1888.0
2009-05-08,1790.0
2009-05-09,1789.0
2009-05-10,1293.0
2009-05-11,1293.0
2009-05-12,1293.0
2009-05-13,1392.0
2009-05-14,1095.0
2009-05-15,-100.0
2009-05-16,796.0
2009-05-17,597.0
2009-05-18,995.0
2009-05-19,99.0
2009-05-20,398.0
2009-05-21,100.0
2009-05-22,597.0
2009-05-23,398.0
2009-05-24,1094.0
2009-05-25,996.0
2009-05-26,-896.0
2009-05-27,597.0
2009-05-28,-895.0
2009-05-29,0.0
2009-05-30,99.0
2009-05-31,0.0
2009-06-01,0.0
2009-06-02,0.0
2009-06-03,0.0
2009-06-04,0.0
2009-06-05,0.0
2009-06-06,0.0
2009-06-07,0.0
2009-06-08,0.0
2009-06-09,0.0
2009-06-10,0.0
2009-06-11,0.0
2009-06-12,-995.0
2009-06-13,-398.0
2009-06-14,-398.0
2009-06-15,-398.0
2009-06-16,-398.0
2009-06-17,-398.0
2009-06-18,-398.0
2009-06-19,-398.0
2009-06-20,-398.0
2009-06-21,-398.0
2009-06-22,-398.0
2009-06-23,-398.0
2009-06-24,-398.0
2009-06-25,-696.0
2009-06-26,-100.0
2009-06-27,-99.0
2009-06-28,-100.0
2009-06-29,-199.0
2009-06-30,0.0
2009-07-01,0.0
2009-07-02,0.0
2009-07-03,0.0
2009-07-04,0.0
2009-07-05,0.0
2009-07-06,0.0
2009-07-07,0.0
2009-07-08,-497.0
2009-07-09,-99.0
2009-07-10,-398.0
2009-07-11,0.0
2009-07-12,0.0
2009-07-13,0.0
2009-07-14,-199.0
2009-07-15,-199.0
2009-07-16,-199.0
2009-07-17,-199.0
2009-07-18,-199.0
2009-07-19,-199.0
2009-07-20,-497.0
2009-07-21,-199.0
2009-07-22,-99.0
2009-07-23,-995.0
2009-07-24,-298.0
2009-07-25,-298.0
2009-07-26,-298.0
2009-07-27,-100.0
2009-07-28,-497.0
2009-07-29,-497.0
2009-07-30,-497.0
2009-07-31,-497.0
2009-08-01,0.0
2009-08-02,-596.0
2009-08-03,-597.0
2009-08-04,-596.0
2009-08-05,-596.0
2009-08-06,-597.0
2009-08-07,-596.0
2009-08-08,-596.0
2009-08-09,-596.0
2009-08-10,-596.0
2009-08-11,-596.0
2009-08-12,-596.0
2009-08-13,-398.0
2009-08-14,-496.0
2009-08-15,-497.0
2009-08-16,-496.0
2009-08-17,-497.0
2009-08-18,-496.0
2009-08-19,-497.0
2009-08-20,-496.0
2009-08-21,-497.0
2009-08-22,0.0
2009-08-23,0.0
2009-08-24,0.0
2009-08-25,0.0
2009-08-26,0.0
2009-08-27,-496.0
2009-08-28,0.0
2009-08-29,0.0
2009-08-30,0.0
2009-08-31,0.0
2009-09-01,0.0
2009-09-02,-298.0
2009-09-03,-298.0
2009-09-04,-298.0
2009-09-05,-298.0
2009-09-06,-298.0
2009-09-07,-297.0
2009-09-08,-298.0
2009-09-09,-99.0
2009-09-10,-100.0
2009-09-11,-99.0
2009-09-12,-99.0
2009-09-13,0.0
2009-09-14,0.0
2009-09-15,-99.0
2009-09-16,-100.0
2009-09-17,-99.0
2009-09-18,-99.0
2009-09-19,-298.0
2009-09-20,-198.0
2009-09-21,-100.0
2009-09-22,-198.0
2009-09-23,-199.0
2009-09-24,-198.0
2009-09-25,-199.0
2009-09-26,-198.0
2009-09-27,-199.0
2009-09-28,-198.0
2009-09-29,-298.0
2009-09-30,-298.0
2009-10-01,0.0
2009-10-02,298.0
2009-10-03,298.0
2009-10-04,198.0
2009-10-05,199.0
2009-10-06,99.0
2009-10-07,99.0
2009-10-08,100.0
2009-10-09,99.0
2009-10-10,0.0
2009-10-11,99.0
2009-10-12,0.0
2009-10-13,99.0
2009-10-14,100.0
2009-10-15,99.0
2009-10-16,0.0
2009-10-17,99.0
2009-10-18,0.0
2009-10-19,99.0
2009-10-20,0.0
2009-10-21,0.0
2009-10-22,0.0
2009-10-23,0.0
2009-10-24,0.0
2009-10-25,0.0
2009-10-26,0.0
2009-10-27,0.0
2009-10-28,0.0
2009-10-29,0.0
2009-10-30,0.0
2009-10-31,0.0
2009-11-01,0.0
2009-11-02,-99.0
2009-11-03,-99.0
2009-11-04,-99.0
2009-11-05,-100.0
2009-11-06,-99.0
2009-11-07,-99.0
2009-11-08,-99.0
2009-11-09,-100.0
2009-11-10,-99.0
2009-11-11,-99.0
2009-11-12,-199.0
2009-11-13,-198.0
2009-11-14,-199.0
2009-11-15,-198.0
2009-11-16,-199.0
2009-11-17,-99.0
2009-11-18,-198.0
2009-11-19,-99.0
2009-11-20,-199.0
2009-11-21,-99.0
2009-11-22,-199.0
2009-11-23,-99.0
2009-11-24,-99.0
2009-11-25,-198.0
2009-11-26,-100.0
2009-11-27,-198.0
2009-11-28,-99.0
2009-11-29,-199.0
2009-11-30,-99.0
2009-12-01,0.0
2009-12-02,-496.0
2009-12-03,-496.0
2009-12-04,-496.0
2009-12-05,-496.0
2009-12-06,-496.0
2009-12-07,-496.0
2009-12-08,0.0
2009-12-09,0.0
2009-12-10,0.0
2009-12-11,0.0
2009-12-12,0.0
2009-12-13,0.0
2009-12-14,0.0
2009-12-15,0.0
2009-12-16,0.0
2009-12-17,0.0
2009-12-18,0.0
2009-12-19,0.0
2009-12-20,0.0
2009-12-21,0.0
2009-12-22,0.0
2009-12-23,0.0
2009-12-24,0.0
2009-12-25,0.0
2009-12-26,0.0
2009-12-27,0.0
2009-12-28,0.0
2009-12-29,0.0
2009-12-30,0.0
2009-12-31,0.0
2010-01-01,0.0
2010-01-02,0.0
2010-01-03,0.0
2010-01-04,0.0
2010-01-05,0.0
2010-01-06,0.0
2010-01-07,0.0
2010-01-08,0.0
2010-01-09,0.0
2010-01-10,0.0
2010-01-11,0.0
2010-01-12,0.0
2010-01-13,0.0
2010-01-14,0.0
2010-01-15,0.0
2010-01-16,0.0
2010-01-17,0.0
2010-01-18,0.0
2010-01-19,0.0
2010-01-20,0.0
2010-01-21,0.0
2010-01-22,0.0
2010-01-23,0.0
2010-01-24,0.0
2010-01-25,0.0
2010-01-26,0.0
2010-01-27,0.0
2010-01-28,0.0
2010-01-29,0.0
2010-01-30,0.0
2010-01-31,0.0
2010-02-01,0.0
2010-02-02,-297.0
2010-02-03,-298.0
2010-02-04,-297.0
2010-02-05,-99.0
2010-02-06,297.0
2010-02-07,298.0
2010-02-08,396.0
2010-02-09,0.0
2010-02-10,0.0
2010-02-11,0.0
2010-02-12,0.0
2010-02-13,0.0
2010-02-14,0.0
2010-02-15,0.0
2010-02-16,298.0
2010-02-17,297.0
2010-02-18,298.0
2010-02-19,99.0
2010-02-20,298.0
2010-02-21,297.0
2010-02-22,397.0
2010-02-23,0.0
2010-02-24,0.0
2010-02-25,0.0
2010-02-26,694.0
2010-02-27,695.0
2010-02-28,595.0
2010-03-01,0.0
2010-03-02,99.0
2010-03-03,199.0
2010-03-04,0.0
2010-03-05,198.0
2010-03-06,100.0
2010-03-07,198.0
2010-03-08,198.0
2010-03-09,298.0
2010-03-10,298.0
2010-03-11,298.0
2010-03-12,99.0
2010-03-13,298.0
2010-03-14,397.0
2010-03-15,297.0
2010-03-16,199.0
2010-03-17,198.0
2010-03-18,199.0
2010-03-19,198.0
2010-03-20,199.0
2010-03-21,198.0
2010-03-22,199.0
2010-03-23,298.0
2010-03-24,297.0
2010-03-25,398.0
2010-03-26,397.0
2010-03-27,397.0
2010-03-28,397.0
2010-03-29,397.0
2010-03-30,397.0
2010-03-31,596.0
2010-04-01,0.0
2010-04-02,298.0
2010-04-03,298.0
2010-04-04,298.0
2010-04-05,298.0
2010-04-06,298.0
2010-04-07,298.0
2010-04-08,198.0
2010-04-09,298.0
2010-04-10,298.0
2010-04-11,298.0
2010-04-12,298.0
2010-04-13,298.0
2010-04-14,298.0
2010-04-15,99.0
2010-04-16,100.0
2010-04-17,198.0
2010-04-18,199.0
2010-04-19,199.0
2010-04-20,99.0
2010-04-21,100.0
2010-04-22,198.0
2010-04-23,994.0
2010-04-24,695.0
2010-04-25,696.0
2010-04-26,596.0
2010-04-27,497.0
2010-04-28,497.0
2010-04-29,497.0
2010-04-30,497.0
2010-05-01,0.0
2010-05-02,994.0
2010-05-03,994.0
2010-05-04,796.0
2010-05-05,795.0
2010-05-06,796.0
2010-05-07,596.0
2010-05-08,100.0
2010-05-09,99.0
2010-05-10,100.0
2010-05-11,99.0
2010-05-12,100.0
2010-05-13,99.0
2010-05-14,99.0
2010-05-15,199.0
2010-05-16,100.0
2010-05-17,199.0
2010-05-18,298.0
2010-05-19,199.0
2010-05-20,199.0
2010-05-21,99.0
2010-05-22,398.0
2010-05-23,398.0
2010-05-24,398.0
2010-05-25,398.0
2010-05-26,398.0
2010-05-27,299.0
2010-05-28,199.0
2010-05-29,199.0
2010-05-30,99.0
2010-05-31,199.0
2010-06-01,0.0
2010-06-02,0.0
2010-06-03,0.0
2010-06-04,0.0
2010-06-05,0.0
2010-06-06,0.0
2010-06-07,0.0
2010-06-08,0.0
2010-06-09,0.0
2010-06-10,0.0
2010-06-11,0.0
2010-06-12,0.0
2010-06-13,0.0
2010-06-14,0.0
2010-06-15,0.0
2010-06-16,0.0
2010-06-17,0.0
2010-06-18,0.0
2010-06-19,0.0
2010-06-20,0.0
2010-06-21,0.0
2010-06-22,0.0
2010-06-23,0.0
2010-06-24,0.0
2010-06-25,0.0
2010-06-26,0.0
2010-06-27,0.0
2010-06-28,0.0
2010-06-29,0.0
2010-06-30,0.0
2010-07-01,0.0
2010-07-02,0.0
2010-07-03,0.0
2010-07-04,0.0
2010-07-05,0.0
2010-07-06,0.0
2010-07-07,0.0
2010-07-08,-1393.0
2010-07-09,-1393.0
2010-07-10,-1392.0
2010-07-11,-1392.0
2010-07-12,-1393.0
2010-07-13,-696.0
2010-07-14,-596.0
2010-07-15,-696.0
2010-07-16,-398.0
2010-07-17,-298.0
2010-07-18,-397.0
2010-07-19,-398.0
2010-07-20,-99.0
2010-07-21,0.0
2010-07-22,-100.0
2010-07-23,-99.0
2010-07-24,-100.0
2010-07-25,0.0
2010-07-26,-99.0
2010-07-27,-199.0
2010-07-28,-199.0
2010-07-29,-198.0
2010-07-30,-199.0
2010-07-31,-199.0
2010-08-01,-497.0
2010-08-02,-497.0
2010-08-03,-695.0
2010-08-04,-795.0
2010-08-05,-695.0
2010-08-06,-795.0
2010-08-07,-596.0
2010-08-08,-497.0
2010-08-09,-596.0
2010-08-10,-596.0
2010-08-11,-596.0
2010-08-12,-496.0
2010-08-13,-596.0
2010-08-14,-496.0
2010-08-15,-497.0
2010-08-16,-496.0
2010-08-17,-497.0
2010-08-18,-496.0
2010-08-19,-497.0
2010-08-20,-496.0
2010-08-21,-496.0
2010-08-22,-496.0
2010-08-23,-497.0
2010-08-24,-397.0
2010-08-25,-297.0
2010-08-26,-397.0
2010-08-27,-397.0
2010-08-28,-100.0
2010-08-29,-99.0
2010-08-30,-198.0
2010-08-31,-100.0
2010-09-01,-496.0
2010-09-02,-1190.0
2010-09-03,-1290.0
2010-09-04,0.0
2010-09-05,0.0
2010-09-06,0.0
2010-09-07,0.0
2010-09-08,-99.0
2010-09-09,0.0
2010-09-10,0.0
2010-09-11,0.0
2010-09-12,0.0
2010-09-13,0.0
2010-09-14,0.0
2010-09-15,0.0
2010-09-16,-99.0
2010-09-17,0.0
2010-09-18,0.0
2010-09-19,0.0
2010-09-20,0.0
2010-09-21,-100.0
2010-09-22,0.0
2010-09-23,-99.0
2010-09-24,-99.0
2010-09-25,-99.0
2010-09-26,-99.0
2010-09-27,0.0
2010-09-28,-100.0
2010-09-29,-99.0
2010-09-30,-99.0
2010-10-01,0.0
2010-10-02,99.0
2010-10-03,199.0
2010-10-04,99.0
2010-10-05,99.0
2010-10-06,198.0
2010-10-07,100.0
2010-10-08,99.0
2010-10-09,0.0
2010-10-10,99.0
2010-10-11,0.0
2010-10-12,-496.0
2010-10-13,-496.0
2010-10-14,-198.0
2010-10-15,-99.0
2010-10-16,-199.0
2010-10-17,-198.0
2010-10-18,-99.0
2010-10-19,-199.0
2010-10-20,0.0
2010-10-21,0.0
2010-10-22,0.0
2010-10-23,0.0
2010-10-24,0.0
2010-10-25,0.0
2010-10-26,0.0
2010-10-27,0.0
2010-10-28,0.0
2010-10-29,0.0
2010-10-30,0.0
2010-10-31,0.0
2010-11-01,0.0
2010-11-02,-99.0
2010-11-03,0.0
2010-11-04,-99.0
2010-11-05,0.0
2010-11-06,-99.0
2010-11-07,0.0
2010-11-08,-99.0
2010-11-09,0.0
2010-11-10,-99.0
2010-11-11,-100.0
2010-11-12,0.0
2010-11-13,-99.0
2010-11-14,0.0
2010-11-15,-99.0
2010-11-16,-99.0
2010-11-17,0.0
2010-11-18,-99.0
2010-11-19,0.0
2010-11-20,0.0
2010-11-21,0.0
2010-11-22,0.0
2010-11-23,0.0
2010-11-24,99.0
2010-11-25,0.0
2010-11-26,0.0
2010-11-27,0.0
2010-11-28,0.0
2010-11-29,0.0
2010-11-30,0.0
2010-12-01,0.0
2010-12-02,-198.0
2010-12-03,-99.0
2010-12-04,-199.0
2010-12-05,-99.0
2010-12-06,-198.0
2010-12-07,-198.0
2010-12-08,-199.0
2010-12-09,-198.0
2010-12-10,-99.0
2010-12-11,-198.0
2010-12-12,-198.0
2010-12-13,-198.0
2010-12-14,297.0
2010-12-15,297.0
2010-12-16,297.0
2010-12-17,199.0
2010-12-18,297.0
2010-12-19,297.0
2010-12-20,298.0
2010-12-21,-198.0
2010-12-22,-199.0
2010-12-23,-99.0
2010-12-24,-198.0
2010-12-25,-198.0
2010-12-26,-199.0
2010-12-27,-198.0
2010-12-28,-198.0
2010-12-29,-99.0
2010-12-30,-198.0
2010-12-31,-198.0
2011-01-01,0.0
2011-01-02,-111.0
2011-01-03,-110.0
2011-01-04,-110.0
2011-01-05,-110.0
2011-01-06,-110.0
2011-01-07,-110.0
2011-01-08,-110.0
2011-01-09,-110.0
2011-01-10,-110.0
2011-01-11,0.0
2011-01-12,0.0
2011-01-13,0.0
2011-01-14,0.0
2011-01-15,0.0
2011-01-16,0.0
2011-01-17,0.0
2011-01-18,0.0
2011-01-19,0.0
2011-01-20,0.0
2011-01-21,0.0
2011-01-22,0.0
2011-01-23,0.0
2011-01-24,0.0
2011-01-25,0.0
2011-01-26,0.0
2011-01-27,0.0
2011-01-28,0.0
2011-01-29,0.0
2011-01-30,0.0
2011-01-31,0.0
2011-02-01,991.0
2011-02-02,495.0
2011-02-03,496.0
2011-02-04,495.0
2011-02-05,496.0
2011-02-06,496.0
2011-02-07,495.0
2011-02-08,142.0
2011-02-09,142.0
2011-02-10,141.0
2011-02-11,142.0
2011-02-12,142.0
2011-02-13,141.0
2011-02-14,142.0
2011-02-15,62.0
2011-02-16,62.0
2011-02-17,62.0
2011-02-18,62.0
2011-02-19,62.0
2011-02-20,62.0
2011-02-21,62.0
2011-02-22,62.0
2011-02-23,0.0
2011-02-24,0.0
2011-02-25,0.0
2011-02-26,0.0
2011-02-27,0.0
2011-02-28,0.0
2011-03-01,0.0
2011-03-02,298.0
2011-03-03,396.0
2011-03-04,298.0
2011-03-05,0.0
2011-03-06,0.0
2011-03-07,0.0
2011-03-08,-794.0
2011-03-09,-793.0
2011-03-10,-1983.0
2011-03-11,-1983.0
2011-03-12,-1981.0
2011-03-13,-1981.0
2011-03-14,-1980.0
2011-03-15,99.0
2011-03-16,99.0
2011-03-17,99.0
2011-03-18,99.0
2011-03-19,0.0
2011-03-20,0.0
2011-03-21,0.0
2011-03-22,0.0
2011-03-23,0.0
2011-03-24,0.0
2011-03-25,99.0
2011-03-26,0.0
2011-03-27,99.0
2011-03-28,0.0
2011-03-29,693.0
2011-03-30,594.0
2011-03-31,693.0
2011-04-01,699.0
2011-04-02,699.0
2011-04-03,700.0
2011-04-04,699.0
2011-04-05,700.0
2011-04-06,699.0
2011-04-07,700.0
2011-04-08,700.0
2011-04-09,700.0
2011-04-10,700.0
2011-04-11,700.0
2011-04-12,700.0
2011-04-13,700.0
2011-04-14,700.0
2011-04-15,701.0
2011-04-16,700.0
2011-04-17,701.0
2011-04-18,0.0
2011-04-19,0.0
2011-04-20,218.0
2011-04-21,218.0
2011-04-22,219.0
2011-04-23,218.0
2011-04-24,218.0
2011-04-25,298.0
2011-04-26,298.0
2011-04-27,298.0
2011-04-28,297.0
2011-04-29,298.0
2011-04-30,298.0
2011-05-01,1092.0
2011-05-02,794.0
2011-05-03,794.0
2011-05-04,795.0
2011-05-05,794.0
2011-05-06,795.0
2011-05-07,0.0
2011-05-08,0.0
2011-05-09,0.0
2011-05-10,0.0
2011-05-11,0.0
2011-05-12,0.0
2011-05-13,235.0
2011-05-14,236.0
2011-05-15,236.0
2011-05-16,236.0
2011-05-17,236.0
2011-05-18,236.0
2011-05-19,236.0
2011-05-20,236.0
2011-05-21,-795.0
2011-05-22,-794.0
2011-05-23,-795.0
2011-05-24,298.0
2011-05-25,298.0
2011-05-26,298.0
2011-05-27,298.0
2011-05-28,298.0
2011-05-29,298.0
2011-05-30,298.0
2011-05-31,298.0
2011-06-01,4073.0
2011-06-02,-223.0
2011-06-03,-224.0
2011-06-04,-223.0
2011-06-05,-224.0
2011-06-06,-224.0
2011-06-07,-223.0
2011-06-08,-224.0
2011-06-09,-223.0
2011-06-10,-139.0
2011-06-11,-139.0
2011-06-12,-140.0
2011-06-13,-139.0
2011-06-14,-139.0
2011-06-15,-298.0
2011-06-16,-298.0
2011-06-17,-298.0
2011-06-18,-298.0
2011-06-19,-298.0
2011-06-20,-298.0
2011-06-21,-298.0
2011-06-22,25.0
2011-06-23,25.0
2011-06-24,25.0
2011-06-25,24.0
2011-06-26,348.0
2011-06-27,348.0
2011-06-28,99.0
2011-06-29,99.0
2011-06-30,100.0
2011-07-01,0.0
2011-07-02,1490.0
2011-07-03,1490.0
2011-07-04,1491.0
2011-07-05,1491.0
2011-07-06,1193.0
2011-07-07,1093.0
2011-07-08,995.0
2011-07-09,1790.0
2011-07-10,1094.0
2011-07-11,895.0
2011-07-12,597.0
2011-07-13,597.0
2011-07-14,497.0
2011-07-15,597.0
2011-07-16,597.0
2011-07-17,0.0
2011-07-18,-99.0
2011-07-19,0.0
2011-07-20,-100.0
2011-07-21,0.0
2011-07-22,-99.0
2011-07-23,0.0
2011-07-24,-100.0
2011-07-25,0.0
2011-07-26,-99.0
2011-07-27,-100.0
2011-07-28,-99.0
2011-07-29,-100.0
2011-07-30,-99.0
2011-07-31,-100.0
2011-08-01,0.0
2011-08-02,-99.0
2011-08-03,0.0
2011-08-04,-100.0
2011-08-05,0.0
2011-08-06,-99.0
2011-08-07,-100.0
2011-08-08,0.0
2011-08-09,-99.0
2011-08-10,-100.0
2011-08-11,0.0
2011-08-12,-99.0
2011-08-13,0.0
2011-08-14,-100.0
2011-08-15,-99.0
2011-08-16,0.0
2011-08-17,-100.0
2011-08-18,-99.0
2011-08-19,-199.0
2011-08-20,-100.0
2011-08-21,-199.0
2011-08-22,-99.0
2011-08-23,-199.0
2011-08-24,-100.0
2011-08-25,-99.0
2011-08-26,-199.0
2011-08-27,-99.0
2011-08-28,-199.0
2011-08-29,-100.0
2011-08-30,-199.0
2011-08-31,-99.0
2011-09-01,-199.0
2011-09-02,-199.0
2011-09-03,-199.0
2011-09-04,-298.0
2011-09-05,-398.0
2011-09-06,-298.0
2011-09-07,-398.0
2011-09-08,-100.0
2011-09-09,-99.0
2011-09-10,0.0
2011-09-11,-100.0
2011-09-12,0.0
2011-09-13,-99.0
2011-09-14,0.0
2011-09-15,-99.0
2011-09-16,-100.0
2011-09-17,0.0
2011-09-18,-99.0
2011-09-19,0.0
2011-09-20,-100.0
2011-09-21,-99.0
2011-09-22,-100.0
2011-09-23,-99.0
2011-09-24,-99.0
2011-09-25,-100.0
2011-09-26,-99.0
2011-09-27,-199.0
2011-09-28,-100.0
2011-09-29,-99.0
2011-09-30,-199.0
2011-10-01,-99.0
2011-10-02,-100.0
2011-10-03,-99.0
2011-10-04,-99.0
2011-10-05,-100.0
2011-10-06,-99.0
2011-10-07,-100.0
2011-10-08,-99.0
2011-10-09,-100.0
2011-10-10,-99.0
2011-10-11,0.0
2011-10-12,0.0
2011-10-13,-99.0
2011-10-14,-100.0
2011-10-15,-99.0
2011-10-16,-100.0
2011-10-17,0.0
2011-10-18,-99.0
2011-10-19,-99.0
2011-10-20,-100.0
2011-10-21,-199.0
2011-10-22,-198.0
2011-10-23,-199.0
2011-10-24,-199.0
2011-10-25,-99.0
2011-10-26,-100.0
2011-10-27,0.0
2011-10-28,-99.0
2011-10-29,0.0
2011-10-30,-100.0
2011-10-31,-99.0
2011-11-01,0.0
2011-11-02,-199.0
2011-11-03,-199.0
2011-11-04,-198.0
2011-11-05,-199.0
2011-11-06,-199.0
2011-11-07,-199.0
2011-11-08,-198.0
2011-11-09,-199.0
2011-11-10,-57.0
2011-11-11,-57.0
2011-11-12,-56.0
2011-11-13,-57.0
2011-11-14,-57.0
2011-11-15,-57.0
2011-11-16,-57.0
2011-11-17,-49.0
2011-11-18,-50.0
2011-11-19,-50.0
2011-11-20,-49.0
2011-11-21,-50.0
2011-11-22,-50.0
2011-11-23,-49.0
2011-11-24,-50.0
2011-11-25,-50.0
2011-11-26,-49.0
2011-11-27,-50.0
2011-11-28,-50.0
2011-11-29,-49.0
2011-11-30,-50.0
2011-12-01,0.0
2011-12-02,-149.0
2011-12-03,-149.0
2011-12-04,-149.0
2011-12-05,-149.0
2011-12-06,-149.0
2011-12-07,-149.0
2011-12-08,-43.0
2011-12-09,-43.0
2011-12-10,-42.0
2011-12-11,-43.0
2011-12-12,-42.0
2011-12-13,-43.0
2011-12-14,-42.0
2011-12-15,-57.0
2011-12-16,-57.0
2011-12-17,-57.0
2011-12-18,-56.0
2011-12-19,-57.0
2011-12-20,-57.0
2011-12-21,-57.0
2011-12-22,-10.0
2011-12-23,-10.0
2011-12-24,-10.0
2011-12-25,-10.0
2011-12-26,-19.0
2011-12-27,-10.0
2011-12-28,-10.0
2011-12-29,-10.0
2011-12-30,-10.0
2011-12-31,-10.0
2012-01-01,-10.0
2012-01-02,-10.0
2012-01-03,-10.0
2012-01-04,-20.0
2012-01-05,-10.0
2012-01-06,-10.0
2012-01-07,-10.0
2012-01-08,-9.0
2012-01-09,-10.0
2012-01-10,-10.0
2012-01-11,-10.0
2012-01-12,-10.0
2012-01-13,-20.0
2012-01-14,-10.0
2012-01-15,-10.0
2012-01-16,-10.0
2012-01-17,-10.0
2012-01-18,199.0
2012-01-19,199.0
2012-01-20,198.0
2012-01-21,199.0
2012-01-22,199.0
2012-01-23,198.0
2012-01-24,199.0
2012-01-25,199.0
2012-01-26,0.0
2012-01-27,0.0
2012-01-28,0.0
2012-01-29,0.0
2012-01-30,0.0
2012-01-31,0.0
2012-02-01,0.0
2012-02-02,0.0
2012-02-03,-100.0
2012-02-04,-99.0
2012-02-05,-99.0
2012-02-06,-100.0
2012-02-07,38.0
2012-02-08,37.0
2012-02-09,37.0
2012-02-10,37.0
2012-02-11,38.0
2012-02-12,37.0
2012-02-13,37.0
2012-02-14,37.0
2012-02-15,-12.0
2012-02-16,-12.0
2012-02-17,-13.0
2012-02-18,-12.0
2012-02-19,-13.0
2012-02-20,-12.0
2012-02-21,-12.0
2012-02-22,-13.0
2012-02-23,-99.0
2012-02-24,-100.0
2012-02-25,-99.0
2012-02-26,-99.0
2012-02-27,-100.0
2012-02-28,-99.0
2012-02-29,-99.0
2012-03-01,0.0
2012-03-02,0.0
2012-03-03,0.0
2012-03-04,0.0
2012-03-05,0.0
2012-03-06,0.0
2012-03-07,0.0
2012-03-08,0.0
2012-03-09,0.0
2012-03-10,0.0
2012-03-11,0.0
2012-03-12,0.0
2012-03-13,-100.0
2012-03-14,0.0
2012-03-15,0.0
2012-03-16,0.0
2012-03-17,0.0
2012-03-18,0.0
2012-03-19,0.0
2012-03-20,0.0
2012-03-21,0.0
2012-03-22,0.0
2012-03-23,-99.0
2012-03-24,0.0
2012-03-25,0.0
2012-03-26,0.0
2012-03-27,-99.0
2012-03-28,-100.0
2012-03-29,-99.0
2012-03-30,-99.0
2012-03-31,-100.0
2012-04-01,-99.0
2012-04-02,-100.0
2012-04-03,0.0
2012-04-04,0.0
2012-04-05,0.0
2012-04-06,0.0
2012-04-07,0.0
2012-04-08,0.0
2012-04-09,0.0
2012-04-10,0.0
2012-04-11,0.0
2012-04-12,0.0
2012-04-13,0.0
2012-04-14,0.0
2012-04-15,0.0
2012-04-16,-198.0
2012-04-17,-497.0
2012-04-18,-695.0
2012-04-19,0.0
2012-04-20,99.0
2012-04-21,0.0
2012-04-22,99.0
2012-04-23,0.0
2012-04-24,100.0
2012-04-25,298.0
2012-04-26,298.0
2012-04-27,397.0
2012-04-28,398.0
2012-04-29,298.0
2012-04-30,298.0
2012-05-01,49.0
2012-05-02,50.0
2012-05-03,85.0
2012-05-04,85.0
2012-05-05,85.0
2012-05-06,86.0
2012-05-07,85.0
2012-05-08,85.0
2012-05-09,85.0
2012-05-10,-142.0
2012-05-11,-142.0
2012-05-12,-142.0
2012-05-13,-142.0
2012-05-14,-425.0
2012-05-15,141.0
2012-05-16,-141.0
2012-05-17,-40.0
2012-05-18,-40.0
2012-05-19,-40.0
2012-05-20,-39.0
2012-05-21,-40.0
2012-05-22,-50.0
2012-05-23,-49.0
2012-05-24,-83.0
2012-05-25,-83.0
2012-05-26,-83.0
2012-05-27,-83.0
2012-05-28,-82.0
2012-05-29,-83.0
2012-05-30,-50.0
2012-05-31,-50.0
2012-06-01,0.0
2012-06-02,-313.0
2012-06-03,-313.0
2012-06-04,-313.0
2012-06-05,-314.0
2012-06-06,-313.0
2012-06-07,-313.0
2012-06-08,-313.0
2012-06-09,-314.0
2012-06-10,-313.0
2012-06-11,-313.0
2012-06-12,-313.0
2012-06-13,-313.0
2012-06-14,-314.0
2012-06-15,-680.0
2012-06-16,-681.0
2012-06-17,-681.0
2012-06-18,-681.0
2012-06-19,-681.0
2012-06-20,-680.0
2012-06-21,-681.0
2012-06-22,-347.0
2012-06-23,-347.0
2012-06-24,-348.0
2012-06-25,-347.0
2012-06-26,-695.0
2012-06-27,-1091.0
2012-06-28,-1092.0
2012-06-29,-1091.0
2012-06-30,-992.0
2012-07-01,-99.0
2012-07-02,-310.0
2012-07-03,-310.0
2012-07-04,-309.0
2012-07-05,-310.0
2012-07-06,-310.0
2012-07-07,-310.0
2012-07-08,-310.0
2012-07-09,-309.0
2012-07-10,-609.0
2012-07-11,-609.0
2012-07-12,-609.0
2012-07-13,-608.0
2012-07-14,-609.0
2012-07-15,-608.0
2012-07-16,-609.0
2012-07-17,-619.0
2012-07-18,-618.0
2012-07-19,-619.0
2012-07-20,-619.0
2012-07-21,-139.0
2012-07-22,-138.0
2012-07-23,-139.0
2012-07-24,-138.0
2012-07-25,-139.0
2012-07-26,-594.0
2012-07-27,-593.0
2012-07-28,-544.0
2012-07-29,-545.0
2012-07-30,-494.0
2012-07-31,-297.0
2012-08-01,-692.0
2012-08-02,-692.0
2012-08-03,-693.0
2012-08-04,-692.0
2012-08-05,-691.0
2012-08-06,-692.0
2012-08-07,-1976.0
2012-08-08,-330.0
2012-08-09,-329.0
2012-08-10,-329.0
2012-08-11,-329.0
2012-08-12,-329.0
2012-08-13,-330.0
2012-08-14,-522.0
2012-08-15,-521.0
2012-08-16,-522.0
2012-08-17,-522.0
2012-08-18,-522.0
2012-08-19,-521.0
2012-08-20,-522.0
2012-08-21,-535.0
2012-08-22,-536.0
2012-08-23,-535.0
2012-08-24,-536.0
2012-08-25,-535.0
2012-08-26,-536.0
2012-08-27,-535.0
2012-08-28,-542.0
2012-08-29,-542.0
2012-08-30,-493.0
2012-08-31,-493.0
2012-09-01,-493.0
2012-09-02,-492.0
2012-09-03,-493.0
2012-09-04,-492.0
2012-09-05,-312.0
2012-09-06,-312.0
2012-09-07,-312.0
2012-09-08,-312.0
2012-09-09,-312.0
2012-09-10,-312.0
2012-09-11,-128.0
2012-09-12,-128.0
2012-09-13,-128.0
2012-09-14,-128.0
2012-09-15,-128.0
2012-09-16,-128.0
2012-09-17,-128.0
2012-09-18,-128.0
2012-09-19,-128.0
2012-09-20,-128.0
2012-09-21,-295.0
2012-09-22,-295.0
2012-09-23,-394.0
2012-09-24,-295.0
2012-09-25,-296.0